Location: Cockatoo Grove
(32.6431°N, 116.9839°W)
Time: 05:13:24
(UTC+00:00)

Daily predictions for brighter satellites

Satellite Brightness Start Highest point End
(mag) Time Altitude Azimuth Time Altitude Azimuth Time Altitude Azimuth
Cosmos 1777 Rocket 4.3 01:31:49 10° SSW 01:37:02 75° WNW 01:42:19 10° NNE
Cosmos 2058 Rocket 3.9 01:34:20 10° NNE 01:38:16 29° ENE 01:42:12 10° SE
Cosmos 1939 Rocket 3.1 01:36:35 10° SSE 01:40:35 50° ENE 01:44:34 10° N
ERS-2 2.8 01:37:58 10° NE 01:41:17 33° E 01:44:34 10° SSE
CORIOLIS 4.5 01:38:18 10° S 01:43:41 76° WSW 01:49:05 10° NNW
Okean 1-7 Rocket 3.8 01:39:40 10° SSE 01:44:01 50° E 01:48:25 10° NNE
Cosmos 2263 Rocket 4.4 01:42:18 10° WSW 01:46:44 23° WNW 01:51:10 10° N
Cosmos 44 4.1 01:44:25 10° S 01:48:23 29° ESE 01:52:35 10° NE
Aureole 2 Rocket 2.1 01:49:05 10° SSW 01:52:00 78° WNW 01:55:02 10° NNE
PSLV R/B 4.5 01:48:47 10° NNE 01:52:45 40° E 01:56:42 10° S
Cosmos 1726 Rocket 3.5 01:48:32 10° N 01:52:55 77° E 01:57:18 10° S
Cosmos 1626 Rocket 4.3 01:49:53 10° SSE 01:53:41 30° E 01:57:31 10° NNE
CZ-4 R/B 2.4 01:50:18 10° SE 01:53:41 25° ENE 01:57:02 10° NNE
BREEZE-M DEB (TANK) 2.1 01:51:15 10° NW 01:54:05 75° NE 01:58:50 10° ESE
Nadezhda 4 Rocket 4.0 01:50:31 10° S 01:56:40 61° E 02:02:47 10° NNE
Cosmos 1315 Rocket 3.9 01:54:26 10° NNW 01:58:17 48° W 02:02:10 10° S
Lacrosse 5 3.5 01:56:42 10° N 01:59:41 15° NE 02:01:18 14° ENE
ARGOS 4.3 01:57:28 10° ESE 02:01:19 21° ENE 02:05:11 10° NNE
CZ-4B R/B 2.4 01:58:23 10° N 02:01:37 47° WNW 02:04:44 10° SSW
Hubble Space Telescope 1.7 01:58:09 10° WSW 02:02:03 41° S 02:05:22 13° ESE
Cosmos 1689 Rocket 2.4 01:59:29 10° NNE 02:02:11 39° E 02:04:52 10° S
NOSS 2-1 (E) 3.6 02:04:01 10° S 02:07:20 35° ESE 02:09:01 21° ENE
CZ-4 R/B 4.4 02:04:58 10° SSE 02:09:02 61° ENE 02:13:07 10° N
ATLAS 3B R/B 3.8 02:02:47 10° NW 02:09:35 50° WSW 02:16:37 10° S
COSMO-SKYMED 1 3.4 02:07:41 10° N 02:11:55 53° WNW 02:16:07 10° SSW
Cosmos 990 Rocket 4.3 02:07:12 10° S 02:12:09 44° ESE 02:16:54 11° NNE
Meteor 2-13 Rocket 4.4 02:06:29 10° S 02:12:33 81° E 02:18:42 10° N
Cosmos 1943 4.4 02:10:55 10° NW 02:16:16 45° WSW 02:21:34 10° S
IRS-1C Rocket 4.0 02:11:19 10° SSE 02:16:31 70° ENE 02:21:45 10° N
Okean-O 2.9 02:13:12 10° SE 02:17:23 44° ENE 02:21:35 10° N
CZ-2C R/B 3.5 02:13:16 11° NE 02:17:49 30° E 02:22:41 10° SSE
Okean O Rocket 3.9 02:15:52 10° SSW 02:19:42 28° W 02:23:32 10° NW
Cosmos 1844 3.8 02:14:06 10° SSW 02:19:43 80° WNW 02:25:26 10° NNE
COSMOS 2455 4.4 02:16:13 10° WSW 02:21:35 33° WNW 02:27:00 10° N
CZ-2D R/B 3.6 02:19:49 10° S 02:23:39 69° W 02:27:30 10° NNW
SAR-Lupe-4 3.9 02:24:16 10° N 02:27:49 67° WNW 02:31:21 10° SSW
DMSP B5D1-3 4.4 02:25:48 10° NNE 02:30:53 73° ESE 02:35:58 10° S
Cosmos 2026 Rocket 4.0 02:27:49 10° SSE 02:33:41 54° E 02:39:38 10° NNE
Cosmos 1602 Rocket 3.4 02:29:32 10° S 02:33:48 68° E 02:37:46 12° NNE
CZ-2C R/B 3.4 02:30:47 10° S 02:35:54 69° W 02:41:21 10° NNW
H-2A R/B 1.8 02:31:23 10° SSE 02:36:15 65° ENE 02:41:15 10° N
YAOGAN 1 2.4 02:32:55 10° SSE 02:37:13 74° ENE 02:41:32 10° N
Helios 1A Rocket 2.9 02:33:32 10° SSE 02:37:34 55° ENE 02:41:37 10° N
Cosmos 1844 Rocket 3.9 02:35:25 10° SW 02:40:42 40° WNW 02:46:01 10° N
Cosmos 1898 Rocket 3.4 02:36:30 10° S 02:41:46 76° ESE 02:45:28 20° NNE
Cosmos 923 Rocket 4.2 02:37:21 10° N 02:42:30 48° ENE 02:47:36 10° SE
Cosmos 158 Rocket 4.0 02:39:53 10° N 02:45:10 58° ENE 02:50:28 10° SSE
X-37B 3.1 02:45:04 10° NW 02:46:51 14° NNW 02:46:57 14° NNW
Cosmos 2098 Rocket 4.2 02:42:49 10° S 02:49:24 61° E 02:56:42 10° NNE
Cosmos 1680 Rocket 4.0 02:44:48 10° N 02:48:55 38° NE 02:48:55 38° NE
Cosmos 2278 Rocket 2.8 02:45:21 10° SSE 02:50:06 36° ESE 02:50:06 36° ESE
SJ 16-02 3.5 02:52:14 10° WSW 02:55:50 24° WNW 02:59:26 10° NNW
NOSS 2-1 (C) 4.1 02:53:19 10° SW 02:56:38 37° WNW 02:57:19 33° NNW
Cosmos 1340 3.0 02:55:23 10° SSW 02:59:05 63° W 02:59:55 47° NNW
Cosmos 1455 3.3 02:56:10 10° NNW 02:59:48 43° W 03:03:26 10° SSW
Cosmos 1703 4.5 02:57:22 10° SSW 03:01:02 41° W 03:04:09 13° NNW
NOSS 2-1 (D) 4.4 02:59:22 10° WSW 03:02:31 31° WNW 03:03:03 29° NW
CSL-04 Rocket 3.5 02:57:41 10° SSE 03:03:01 77° ENE 03:08:27 10° N
USA 267 3.3 03:01:01 32° NE 03:04:23 80° NW 03:10:55 10° SW
Meteor 2-8 Rocket 4.3 03:01:16 10° N 03:07:22 78° E 03:13:29 10° S
Iridium 4 Rocket 3.5 03:04:03 10° N 03:09:36 82° W 03:14:39 10° S
Cosmos 1937 Rocket 3.7 03:11:12 10° SSW 03:16:27 70° WNW 03:18:01 45° N
CZ-4 R/B 4.1 03:25:36 10° SW 03:28:36 19° W 03:31:35 10° NW
DMSP B5D2-2 4.3 03:30:33 68° SW 03:30:33 68° SW 03:35:11 10° SSW
ARGOS 4.3 03:36:14 10° SSW 03:41:14 41° W 03:46:16 10° NNW
Hubble Space Telescope 3.1 03:39:02 10° WSW 03:40:42 22° WSW 03:40:42 22° WSW
Lacrosse 5 3.4 03:38:10 10° NW 03:40:33 28° NW 03:40:33 28° NW
CZ-3B R/B 4.3 03:42:43 10° NNW 04:06:14 10° SE 04:06:44 10° SE
CZ-2C R/B 4.4 03:54:45 17° NNW 03:57:57 30° WNW 04:02:43 10° SW
CZ-3A R/B 4.4 11:14:15 55° SSE 11:14:15 55° SSE 11:23:13 10° ESE
Atlas Centaur 2 3.8 11:39:07 42° SE 11:39:07 42° SE 11:45:40 10° E
